Weather History for Kremmling, CO

Change the Weather History Date:

Friday, December 7, 2012

  Actual Average (KEGE) Record (KEGE)
Temperature  
Mean Temperature 26 °F -  
Max Temperature 35 °F 38 °F 56 °F (1981)
Min Temperature 17 °F 10 °F -18 °F (1951)
Degree Days  
Heating Degree Days 39    
Moisture  
Dew Point 21 °F    
Average Humidity 67    
Maximum Humidity 86    
Minimum Humidity 48    
Precipitation  
Precipitation 0.00 in - - ()
Sea Level Pressure  
Sea Level Pressure 29.94 in    
Wind  
Wind Speed 4 mph (NW)    
Max Wind Speed 17 mph    
Max Gust Speed 26 mph    
Averages and records for this station are not official NWS values.
T = Trace of Precipitation, MM = Missing Value Source: NWS Daily Summary

Daily Weather History Graph

Daily Weather History Graph

Search for Another Location

Airport:

Trip Planner

Search our weather history database for the weather conditions in past years. The results will help you decide how hot, cold, wet, or windy it might be!

Date:

Astronomy

Dec. 07, 2012 Rise Set
Actual Time 7:14 AM MST 4:39 PM MST
Civil Twilight 6:44 AM MST 5:10 PM MST
Nautical Twilight 6:10 AM MST 5:44 PM MST
Astronomical Twilight 5:37 AM MST 6:16 PM MST
Moon 12:36 AM MST (12/7) 12:38 PM MST (12/7)
Length of Visible Light 10h 26m
Length of Day
9h 25m
Last Quarter, 38% of the Moon is Illuminated
Dec 7
Last Quarter
Dec 13
New
Dec 19
First Quarter
Dec 28
Full
Jan 4
Last Quarter

Hourly Weather History & Observations

Time (MST) Temp. Windchill Dew Point Humidity Pressure Visibility Wind Dir Wind Speed Gust Speed Precip Events Conditions
12:14 AM 19.4 °F - 15.8 °F 86% 29.95 in - Calm Calm - N/A   Unknown
12:35 AM 19.4 °F - 15.8 °F 86% 29.95 in - Calm Calm - N/A   Unknown
12:55 AM 17.6 °F - 12.2 °F 79% 29.94 in - Calm Calm - N/A   Clear
1:15 AM 19.4 °F - 14.0 °F 80% 29.94 in - Calm Calm - N/A   Unknown
1:35 AM 19.4 °F - 14.0 °F 80% 29.94 in - Calm Calm - N/A   Overcast
1:55 AM 19.4 °F 14.3 °F 15.8 °F 86% 29.94 in - SE 3.5 mph - N/A   Unknown
2:15 AM 19.4 °F - 15.8 °F 86% 29.94 in - Calm Calm - N/A   Unknown
2:35 AM 23.0 °F - 17.6 °F 80% 29.94 in - Calm Calm - N/A   Overcast
2:55 AM 23.0 °F - 19.4 °F 86% 29.94 in - Calm Calm - N/A   Unknown
3:15 AM 24.8 °F - 19.4 °F 80% 29.93 in - Calm Calm - N/A   Mostly Cloudy
3:35 AM 24.8 °F - 19.4 °F 80% 29.93 in - Calm Calm - N/A   Overcast
3:55 AM 28.4 °F 23.3 °F 21.2 °F 74% 29.93 in - WNW 4.6 mph - N/A   Overcast
4:15 AM 32.0 °F 25.6 °F 23.0 °F 69% 29.93 in - West 6.9 mph - N/A Snow Light Snow
4:35 AM 33.8 °F 27.7 °F 23.0 °F 65% 29.93 in - WNW 6.9 mph - N/A   Overcast
4:55 AM 33.8 °F 27.0 °F 24.8 °F 70% 29.94 in - WNW 8.1 mph - N/A Snow Light Snow
5:15 AM 32.0 °F 23.6 °F 23.0 °F 69% 29.94 in - West 10.4 mph - N/A   Overcast
5:35 AM 32.0 °F 23.0 °F 23.0 °F 69% 29.93 in - WSW 11.5 mph - N/A   Scattered Clouds
5:55 AM 32.0 °F 23.0 °F 23.0 °F 69% 29.93 in - West 11.5 mph - N/A   Scattered Clouds
6:15 AM 32.0 °F 24.8 °F 21.2 °F 64% 29.94 in - West 8.1 mph - N/A   Mostly Cloudy
6:35 AM 32.0 °F 27.5 °F 21.2 °F 64% 29.94 in - WNW 4.6 mph - N/A   Overcast
6:55 AM 32.0 °F 26.4 °F 23.0 °F 69% 29.94 in - WNW 5.8 mph - N/A   Overcast
7:15 AM 33.8 °F 26.4 °F 21.2 °F 60% 29.94 in - WNW 9.2 mph - N/A   Overcast
7:35 AM 33.8 °F 28.6 °F 21.2 °F 60% 29.94 in - West 5.8 mph - N/A   Overcast
7:55 AM 33.8 °F 27.7 °F 19.4 °F 56% 29.95 in - NW 6.9 mph 17.3 mph N/A   Overcast
8:15 AM 33.8 °F 28.6 °F 21.2 °F 60% 29.94 in - West 5.8 mph - N/A   Overcast
8:35 AM 33.8 °F - 19.4 °F 56% 29.95 in - Calm Calm - N/A   Overcast
8:55 AM 35.6 °F 32.8 °F 19.4 °F 52% 29.95 in - WSW 3.5 mph - N/A   Overcast
9:15 AM 35.6 °F 29.9 °F 21.2 °F 56% 29.96 in - SW 6.9 mph - N/A   Overcast
9:35 AM 35.6 °F 29.9 °F 21.2 °F 56% 29.96 in - SW 6.9 mph - N/A   Overcast
9:55 AM 35.6 °F 31.7 °F 23.0 °F 60% 29.96 in - WSW 4.6 mph - N/A   Overcast
10:15 AM 35.6 °F 31.7 °F 23.0 °F 60% 29.96 in - West 4.6 mph - N/A   Overcast
10:35 AM 33.8 °F 30.8 °F 23.0 °F 65% 29.96 in - West 3.5 mph - N/A Snow Light Snow
10:55 AM 33.8 °F 29.6 °F 24.8 °F 70% 29.95 in - NW 4.6 mph - N/A Snow Light Snow
11:15 AM 33.8 °F - 26.6 °F 75% 29.94 in - Calm Calm - N/A   Overcast
11:35 AM 33.8 °F 29.6 °F 26.6 °F 75% 29.93 in - NNE 4.6 mph - N/A   Overcast
11:55 AM 35.6 °F 31.7 °F 26.6 °F 70% 29.92 in - North 4.6 mph - N/A   Overcast
12:15 PM 33.8 °F 28.6 °F 23.0 °F 65% 29.92 in - NNE 5.8 mph - N/A   Overcast
12:35 PM 33.8 °F 29.6 °F 21.2 °F 60% 29.92 in - NNW 4.6 mph - N/A   Overcast
12:55 PM 33.8 °F 29.6 °F 26.6 °F 75% 29.91 in - NNW 4.6 mph - N/A   Overcast
1:15 PM 33.8 °F 29.6 °F 23.0 °F 65% 29.91 in - WNW 4.6 mph - N/A   Overcast
1:35 PM 33.8 °F 25.8 °F 23.0 °F 65% 29.92 in - WNW 10.4 mph 18.4 mph N/A Snow Light Snow
1:55 PM 33.8 °F 23.9 °F 26.6 °F 75% 29.91 in - WNW 15.0 mph 20.7 mph N/A Snow Light Snow
2:15 PM 35.6 °F 27.5 °F 23.0 °F 60% 29.91 in - West 11.5 mph 19.6 mph N/A   Scattered Clouds
2:35 PM 35.6 °F 28.0 °F 21.2 °F 56% 29.91 in - West 10.4 mph 17.3 mph N/A   Clear
2:55 PM 35.6 °F 25.5 °F 19.4 °F 52% 29.92 in - West 17.3 mph 26.5 mph N/A   Mostly Cloudy
3:12 PM 35.6 °F 29.2 °F 17.6 °F 48% 29.92 in - West 8.1 mph - N/A   Scattered Clouds
3:33 PM 35.6 °F 32.8 °F 17.6 °F 48% 29.92 in - NW 3.5 mph - N/A   Mostly Cloudy
3:55 PM 33.8 °F 29.6 °F 17.6 °F 52% 29.92 in - North 4.6 mph - N/A   Overcast
4:15 PM 33.8 °F 25.8 °F 19.4 °F 56% 29.92 in - NNE 10.4 mph - N/A   Overcast
4:35 PM 33.8 °F 27.7 °F 19.4 °F 56% 29.92 in - NNE 6.9 mph - N/A   Overcast
4:55 PM 32.0 °F 22.1 °F 17.6 °F 55% 29.92 in - NE 13.8 mph - N/A   Overcast
5:15 PM 32.0 °F 23.6 °F 17.6 °F 55% 29.93 in - NE 10.4 mph - N/A   Overcast
5:33 PM 32.0 °F 22.5 °F 19.4 °F 60% 29.93 in - NE 12.7 mph 17.3 mph N/A   Overcast
6:13 PM 32.0 °F 24.2 °F 19.4 °F 60% 29.95 in - WSW 9.2 mph - N/A   Overcast
6:33 PM 32.0 °F - 19.4 °F 60% 29.94 in - Calm Calm - N/A   Overcast
6:53 PM 30.2 °F - 19.4 °F 64% 29.94 in - Calm Calm - N/A   Overcast
7:15 PM 30.2 °F 26.7 °F 19.4 °F 64% 29.95 in - NNW 3.5 mph - N/A   Overcast
7:34 PM 30.2 °F 26.7 °F 19.4 °F 64% 29.95 in - NE 3.5 mph - N/A   Overcast
7:55 PM 30.2 °F - 17.6 °F 60% 29.95 in - Calm Calm - N/A   Overcast
8:15 PM 30.2 °F - 19.4 °F 64% 29.94 in - Calm Calm - N/A   Overcast
8:35 PM 30.2 °F - 19.4 °F 64% 29.95 in - Calm Calm - N/A   Overcast
8:55 PM 30.2 °F - 19.4 °F 64% 29.95 in - Calm Calm - N/A   Overcast
9:14 PM 30.2 °F - 21.2 °F 69% 29.94 in - Calm Calm - N/A   Overcast
9:35 PM 30.2 °F - 23.0 °F 75% 29.94 in - Calm Calm - N/A   Overcast
9:55 PM 30.2 °F - 23.0 °F 75% 29.94 in - Calm Calm - N/A   Overcast
10:15 PM 30.2 °F - 23.0 °F 75% 29.94 in - Calm Calm - N/A   Overcast
10:35 PM 30.2 °F - 23.0 °F 75% 29.93 in - Calm Calm - N/A   Overcast
10:55 PM 30.2 °F 25.4 °F 23.0 °F 75% 29.92 in - ENE 4.6 mph - N/A   Overcast
11:15 PM 28.4 °F - 21.2 °F 74% 29.92 in - Calm Calm - N/A   Overcast
11:32 PM 30.2 °F 25.4 °F 23.0 °F 75% 29.92 in - East 4.6 mph - N/A   Overcast
11:55 PM 28.4 °F 24.6 °F 21.2 °F 74% 29.91 in - ENE 3.5 mph - N/A   Overcast